Home > Weather > Provincetown > Past weeks

Flag for USA Weather for the Past 2 Weeks in Provincetown, Massachusetts, USA

Now
45 °F

Clear.


Feels Like: 42 °F
Forecast: 41 / 48 °F
Wind: 6 mph from South

Location: Provincetown Weather Reporting Station

Current Time: Apr 28, 2016 at 10:19:25 PM

Latest Report: Apr 28, 2016 at 8:56 PM


Visibility: 10 mi

Pressure: 30.11 "Hg

Humidity: 60%

Dew Point: 32 °F

Location of ProvincetownLocation

Historic Weather in Provincetown — Graph

°F

Provincetown Temperature Yesterday

Maximum temperature yesterday: 54 °F (at 2:56 PM)
Minimum temperature yesterday: 38 °F (at 1:56 AM)
Average temperature yesterday: 45 °F

High & Low Weather Summary for the Past Weeks

 TemperatureHumidityPressure
High73 °F (Apr 22, 1:56 PM)100% (Apr 23, 8:56 AM)30.46 "Hg (Apr 23, 8:56 AM)
Low29 °F (Apr 13, 10:56 PM)26% (Apr 27, 2:56 PM)29.72 "Hg (Apr 26, 2:03 PM)
Average46 °F71%30.10 "Hg
* Reported Apr 13 8:56 PM — Apr 28 8:56 PM, Provincetown, Weather by CustomWeather, © 2016

Note: Actual official high and low records may vary slightly from our data, if they occured in-between our weather recording intervals... More about our weather records

Advertising

Provincetown Weather History for the Previous 24 Hours

Scroll right to see more
 ConditionsComfort  
Time TempWeatherWind HumidityBarometerVisibility
8:56 PM
Thu, Apr 28
45 °FClear.6 mph60%30.11 "Hg10 mi
7:56 PM45 °FSunny.8 mph60%30.09 "Hg10 mi
6:56 PM46 °FSunny.9 mph58%30.08 "Hg10 mi
5:56 PM47 °FSunny.12 mph50%30.07 "Hg10 mi
4:56 PM48 °FSunny.9 mph46%30.05 "Hg10 mi
3:56 PM49 °FSunny.7 mph33%30.03 "Hg10 mi
2:56 PM50 °FSunny.9 mph30%30.05 "Hg10 mi
1:56 PM50 °FSunny.8 mph36%30.07 "Hg10 mi
12:56 PM49 °FSunny.9 mph36%30.07 "Hg10 mi
11:56 AM48 °FSunny.7 mph36%30.09 "Hg10 mi
10:56 AM47 °FSunny.9 mph44%30.08 "Hg10 mi
9:56 AM48 °FSunny.10 mph37%30.08 "Hg10 mi
8:56 AM47 °FSunny.6 mph46%30.06 "Hg10 mi
7:56 AM46 °FSunny.5 mph50%30.06 "Hg10 mi
6:56 AM44 °FSunny.6 mph55%30.03 "Hg10 mi
5:56 AM42 °FClear.7 mph57%30.00 "Hg10 mi
4:56 AM43 °FClear.10 mph56%29.97 "Hg10 mi
3:56 AM43 °FClear.12 mph58%29.95 "Hg10 mi
2:56 AM44 °FClear.10 mph63%29.93 "Hg10 mi
1:56 AM45 °FClear.10 mph63%29.92 "Hg10 mi
12:56 AM47 °FClear.17 mph74%29.90 "Hg10 mi
11:56 PM
Wed, Apr 27
44 °FClear.13 mph85%29.86 "Hg10 mi
10:56 PM45 °FClear.13 mph80%29.86 "Hg10 mi
Weather by CustomWeather, © 2016

See weather overviewHow to use our weather pages